This is the latest recevied weather packets stored in our database for station/object AE5EW. If no packets are shown the sender has not sent any weather packets the latest 10 day(s).
| Time | Temp. | Humidity | Pressure | Rain* | Wind** | Luminosity | Snow |
|---|---|---|---|---|---|---|---|
| 1787427837 | 35° C | 57% | 1016 hPa | 0 mm | - | - | - |
| 1787427533 | 35° C | 54% | 1015.8 hPa | 0 mm | - | - | - |
| 1787427229 | 35.56° C | 53% | 1015.7 hPa | 0 mm | - | - | - |
| 1787426924 | 34.44° C | 55% | 1015.6 hPa | 0 mm | - | - | - |
| 1787426619 | 34.44° C | 56% | 1015.7 hPa | 0 mm | - | - | - |
| 1787426315 | 34.44° C | 60% | 1015.8 hPa | 0 mm | - | - | - |
| 1787426012 | 35° C | 61% | 1015.8 hPa | 0 mm | - | - | - |
| 1787425707 | 34.44° C | 60% | 1016.1 hPa | 0 mm | - | - | - |
| 1787425404 | 33.89° C | 62% | 1016 hPa | 0 mm | - | - | - |
| 1787425104 | 33.89° C | 62% | 1016 hPa | 0 mm | - | - | - |
| 1787424804 | 34.44° C | 64% | 1016 hPa | 0 mm | - | - | - |
| 1787424498 | 33.89° C | 63% | 1015.8 hPa | 0 mm | - | - | - |
| 1787424194 | 34.44° C | 58% | 1015.9 hPa | 0 mm | - | - | - |
| 1787423890 | 34.44° C | 62% | 1016 hPa | 0 mm | - | - | - |
| 1787423587 | 34.44° C | 62% | 1016.1 hPa | 0 mm | - | - | - |
| 1787423286 | 34.44° C | 61% | 1016.2 hPa | 0 mm | - | - | - |
| 1787422983 | 33.89° C | 62% | 1016.3 hPa | 0 mm | - | - | - |
| 1787422678 | 33.89° C | 62% | 1016.6 hPa | 0 mm | - | - | - |
| 1787422375 | 33.33° C | 66% | 1016.5 hPa | 0 mm | - | - | - |
| 1787422070 | 32.78° C | 72% | 1016.5 hPa | 0 mm | - | - | - |
| 1787421766 | 32.78° C | 69% | 1016.5 hPa | 0 mm | - | - | - |
| 1787421462 | 33.33° C | 66% | 1016.4 hPa | 0 mm | - | - | - |
| 1787421157 | 32.78° C | 72% | 1016.7 hPa | 0 mm | - | - | - |
| 1787420852 | 32.78° C | 69% | 1016.7 hPa | 0 mm | - | - | - |
| 1787420548 | 32.78° C | 68% | 1016.8 hPa | 0 mm | - | - | - |
* Rain latest hour (hover to see other rain measurements)
** Current wind speed in m/s (hover to see current wind gust speed)